Weather observations for the past three days for
Marion - Williamson County Regional Airport
| Date | Time (cdt) | Wind (kph) | Vis. (km) | Weather | Sky Cond. | Temperature (ºC) | Relative Humidity | Wind Chill (°C) | Heat Index (°C) | Pressure | Precipitation (cm) | ||||||
|---|---|---|---|---|---|---|---|---|---|---|---|---|---|---|---|---|---|
| Air | Dwpt | 6 hour | altimeter (cm) | sea level (mb) | 1 hr | 3 hr | 6 hr | ||||||||||
| Max. | Min. | ||||||||||||||||
| 02 | 09:47 | SW 7 | 16.09 | Fair | CLR | 31 | 23 | 62% | 35 | 76.4 | 0.0 | ||||||
| 02 | 08:47 | SW 7 | 16.09 | Fair | CLR | 29 | 22 | 66% | 32 | 76.4 | 0.0 | ||||||
| 02 | 07:47 | Calm | 16.09 | Fair | CLR | 27 | 22 | 74% | 29 | 76.4 | 0.0 | ||||||
| 02 | 06:45 | Calm | 16.09 | Fair | CLR | 26 | 22 | 79% | 28 | 76.35 | 0.0 | ||||||
| 01 | 18:45 | S 9 | 16.09 | Fair | CLR | 33 | 22 | 52% | 37 | 76.23 | 0.0 | ||||||
| 01 | 17:45 | S 19 | 16.09 | Fair | CLR | 34 | 21 | 47% | 37 | 76.23 | 0.0 | ||||||
| 01 | 16:45 | S 19 | 16.09 | Fair | CLR | 36 | 21 | 42% | 40 | 76.23 | 0.0 | ||||||
| 01 | 15:45 | S 9 | 16.09 | Partly Cloudy | SCT055 | 36 | 21 | 42% | 40 | 76.25 | 0.0 | ||||||
| 01 | 14:45 | SW 9 | 16.09 | Partly Cloudy | SCT055 | 36 | 21 | 42% | 40 | 76.3 | 0.0 | ||||||
| 01 | 13:45 | SW 13 | 16.09 | Fair | CLR | 36 | 21 | 42% | 40 | 76.35 | 0.0 | ||||||
| 01 | 12:45 | W 15 | 16.09 | Fair | CLR | 35 | 21 | 44% | 38 | 76.38 | 0.0 | ||||||
| 01 | 11:45 | W 11 | 16.09 | Fair | CLR | 34 | 22 | 50% | 38 | 76.43 | 0.0 | ||||||
| 01 | 10:45 | W 7 | 16.09 | Fair | CLR | 32 | 23 | 59% | 37 | 76.45 | 0.0 | ||||||
| 01 | 09:45 | SW 11 | 16.09 | Fair | CLR | 31 | 23 | 62% | 35 | 76.43 | 0.0 | ||||||
| 01 | 08:45 | SW 9 | 16.09 | Fair | CLR | 28 | 23 | 74% | 31 | 76.43 | 0.0 | ||||||
| 01 | 07:45 | SE 7 | 16.09 | Fair | CLR | 25 | 23 | 89% | 26 | 76.45 | 0.0 | ||||||
| 01 | 06:45 | SE 7 | 16.09 | Fair | CLR | 23 | 22 | 94% | 76.4 | 0.0 | |||||||
| 01 | 06:35 | Calm | 16.09 | Fair | CLR | 22.7 | 22.4 | 98% | 76.4 | 0.0 | |||||||
| 01 | 06:15 | Calm | 16.09 | Fair | CLR | 22.8 | 22.5 | 98% | 76.38 | 0.0 | |||||||
| 01 | 05:55 | Calm | 16.09 | Fair | CLR | 23 | 22.7 | 98% | 76.38 | 0.0 | |||||||
| 01 | 05:35 | Calm | 16.09 | Fair | CLR | 23 | 22.7 | 98% | 76.38 | 0.0 | |||||||
| 01 | 05:15 | S 6 | 16.09 | Fair | CLR | 23.1 | 22.8 | 98% | 76.38 | 0.0 | |||||||
| 01 | 04:55 | Calm | 16.09 | Fair | CLR | 23 | 22.7 | 98% | 76.38 | 0.0 | |||||||
| 01 | 04:35 | S 6 | 16.09 | Fair | CLR | 23.2 | 22.7 | 97% | 76.35 | 0.0 | |||||||
| 01 | 04:15 | S 6 | 16.09 | Fair | CLR | 23.8 | 21.6 | 88% | 76.35 | 0.0 | |||||||
| 01 | 03:35 | S 6 | 16.09 | Fair | CLR | 23.5 | 22.1 | 92% | 76.33 | 0.0 | |||||||
| 01 | 03:15 | S 6 | 16.09 | Fair | CLR | 24.5 | 21.5 | 83% | 25 | 76.33 | 0.0 | ||||||
| 01 | 02:55 | S 6 | 16.09 | Fair | CLR | 24 | 22 | 89% | 24 | 76.33 | 0.0 | ||||||
| 01 | 02:35 | SW 7 | 16.09 | Fair | CLR | 24.4 | 21.5 | 84% | 25 | 76.33 | 0.0 | ||||||
| 01 | 02:15 | S 9 | 16.09 | Fair | CLR | 24 | 21.5 | 86% | 24 | 76.3 | 0.0 | ||||||
| 01 | 01:55 | S 7 | 16.09 | Fair | CLR | 24.4 | 20.5 | 79% | 25 | 76.3 | 0.0 | ||||||
| 01 | 01:35 | Calm | 16.09 | Fair | CLR | 25 | 20.7 | 77% | 26 | 76.33 | 0.0 | ||||||
| 01 | 01:15 | Calm | 16.09 | Fair | CLR | 24.8 | 20.7 | 78% | 26 | 76.33 | 0.0 | ||||||
| 01 | 00:55 | S 6 | 16.09 | Fair | CLR | 24.7 | 20.6 | 30.4 | 23.4 | 78% | 25 | 76.3 | 0.0 | ||||
| 01 | 00:35 | Calm | 16.09 | Fair | CLR | 24.7 | 20.8 | 79% | 25 | 76.33 | 0.0 | ||||||
| 01 | 00:15 | S 6 | 16.09 | Fair | CLR | 24.6 | 21 | 80% | 25 | 76.33 | 0.0 | ||||||
| 31 | 23:55 | S 7 | 16.09 | Fair | CLR | 23.5 | 21.5 | 89% | 76.33 | 0.0 | |||||||
| 31 | 23:35 | S 6 | 16.09 | Fair | CLR | 24.6 | 20.6 | 78% | 25 | 76.33 | 0.0 | ||||||
| 31 | 23:15 | S 6 | 16.09 | Fair | CLR | 24.9 | 21.1 | 80% | 26 | 76.33 | 0.0 | ||||||
| 31 | 22:55 | S 6 | 16.09 | Fair | CLR | 24.9 | 21 | 79% | 26 | 76.33 | 0.0 | ||||||
| 31 | 22:35 | Calm | 16.09 | Fair | CLR | 25.1 | 21.5 | 81% | 26 | 76.33 | 0.0 | ||||||
| 31 | 22:15 | Calm | 16.09 | Fair | CLR | 26 | 21.2 | 75% | 27 | 76.35 | 0.0 | ||||||
| 31 | 21:55 | SW 6 | 16.09 | Fair | CLR | 27 | 21.2 | 71% | 29 | 76.35 | 0.0 | ||||||
| 31 | 21:35 | S 7 | 16.09 | Fair | CLR | 26.7 | 21.3 | 72% | 29 | 76.33 | 0.0 | ||||||
| 31 | 21:15 | S 6 | 16.09 | Fair | CLR | 27 | 21.5 | 72% | 29 | 76.33 | 0.0 | ||||||
| 31 | 20:55 | Calm | 16.09 | Fair | CLR | 27.4 | 21.6 | 71% | 30 | 76.33 | 0.0 | ||||||
| 31 | 20:35 | Calm | 16.09 | Fair | CLR | 27 | 22.2 | 75% | 29 | 76.3 | 0.0 | ||||||
| 31 | 20:15 | Calm | 16.09 | Fair | CLR | 27.5 | 21.7 | 71% | 30 | 76.3 | 0.0 | ||||||
| 31 | 19:55 | Calm | 16.09 | Fair | CLR | 28.5 | 21.7 | 67% | 31 | 76.28 | 0.0 | ||||||
| 31 | 19:35 | S 6 | 16.09 | Fair | CLR | 27.8 | 21.7 | 69% | 30 | 76.25 | 0.0 | ||||||
| 31 | 19:15 | S 7 | 16.09 | Fair | CLR | 28.4 | 22 | 68% | 31 | 76.25 | 0.0 | ||||||
| 31 | 18:47 | S 19 | 16.09 | Fair | CLR | 32 | 23 | 59% | 37 | 76.25 | 0.0 | ||||||
| 31 | 17:47 | S 19 | 16.09 | Fair | CLR | 33 | 22 | 52% | 37 | 76.25 | 0.0 | ||||||
| 31 | 16:47 | S 28 | 16.09 | Fair | CLR | 34 | 22 | 50% | 38 | 76.25 | 0.0 | ||||||
| 31 | 15:47 | SW 19 | 16.09 | Partly Cloudy | SCT150 | 34 | 22 | 50% | 38 | 76.3 | 0.0 | ||||||
| 31 | 14:45 | SW 19 | 16.09 | Partly Cloudy | SCT150 | 34 | 22 | 50% | 38 | 76.35 | 0.0 | ||||||
| 31 | 13:45 | SW 19 | 16.09 | Partly Cloudy | SCT150 | 34 | 21 | 47% | 37 | 76.35 | 0.0 | ||||||
| 31 | 12:45 | S 19 | 16.09 | Fair | CLR | 34 | 22 | 50% | 38 | 76.4 | 0.0 | ||||||
| 31 | 11:45 | SW 11 | 16.09 | Fair | CLR | 33 | 23 | 56% | 38 | 76.45 | 0.0 | ||||||
| 31 | 10:45 | SW 19 | 16.09 | Fair | CLR | 32 | 22 | 55% | 36 | 76.48 | 0.0 | ||||||
| 31 | 09:45 | W 19 | 16.09 | A Few Clouds | FEW200 | 30 | 22 | 62% | 33 | 76.45 | 0.0 | ||||||
| 31 | 08:45 | W 19 | 16.09 | A Few Clouds | FEW200 | 28 | 22 | 70% | 31 | 76.43 | 0.0 | ||||||
| 31 | 07:45 | S 11 G 39 | 16.09 | A Few Clouds | FEW200 | 26 | 22 | 79% | 28 | 76.38 | 0.0 | ||||||
| 31 | 06:45 | S 9 | 16.09 | Partly Cloudy | SCT150 | 24 | 22 | 89% | 24 | 76.35 | 0.0 | ||||||
| 31 | 06:35 | S 6 | 16.09 | Fair | CLR | 21.7 | 21.5 | 99% | 76.38 | 0.0 | |||||||
| 31 | 06:15 | S 6 | 16.09 | Fair | CLR | 21.7 | 21.5 | 99% | 76.35 | 0.0 | |||||||
| 31 | 05:55 | S 9 | 16.09 | Fair | CLR | 22.5 | 22.1 | 98% | 76.35 | 0.0 | |||||||
| 31 | 05:35 | S 7 | 16.09 | Fair | CLR | 22.6 | 22.3 | 98% | 76.35 | 0.0 | |||||||
| 31 | 05:15 | S 7 | 16.09 | Fair | CLR | 22.7 | 22.5 | 99% | 76.35 | 0.0 | |||||||
| 31 | 04:55 | S 7 | 16.09 | Fair | CLR | 23.2 | 22.8 | 98% | 76.35 | 0.0 | |||||||
| 31 | 04:35 | SW 7 | 16.09 | Fair | CLR | 23.2 | 22.9 | 98% | 76.33 | 0.0 | |||||||
| 31 | 04:15 | SW 9 | 16.09 | Fair | CLR | 23.1 | 22.8 | 98% | 76.33 | 0.0 | |||||||
| 31 | 03:35 | S 6 | 16.09 | Fair | CLR | 22.9 | 21.9 | 94% | 76.3 | 0.0 | |||||||
| 31 | 03:15 | Calm | 16.09 | Fair | CLR | 23 | 21.5 | 91% | 76.3 | 0.0 | |||||||
| 31 | 02:55 | Calm | 16.09 | Fair | CLR | 23 | 21.2 | 90% | 76.3 | 0.0 | |||||||
| 31 | 02:35 | Calm | 16.09 | Fair | CLR | 23 | 20.5 | 86% | 76.3 | 0.0 | |||||||
| 31 | 02:15 | Calm | 16.09 | Fair | CLR | 23 | 20.1 | 84% | 76.3 | 0.0 | |||||||
| 31 | 01:55 | SW 6 | 16.09 | Fair | CLR | 23.1 | 19.7 | 81% | 76.3 | 0.0 | |||||||
| 31 | 01:35 | S 6 | 16.09 | Fair | CLR | 22.5 | 19.4 | 83% | 76.3 | 0.0 | |||||||
| 31 | 01:15 | S 7 | 16.09 | Fair | CLR | 22.6 | 19.2 | 81% | 76.3 | 0.0 | |||||||
| 31 | 00:55 | Calm | 16.09 | Fair | CLR | 23.3 | 19 | 28.2 | 22.1 | 77% | 76.3 | 0.0 | |||||
| 31 | 00:35 | Calm | 16.09 | Fair | CLR | 23 | 18.8 | 77% | 76.3 | 0.0 | |||||||
| 31 | 00:15 | Calm | 16.09 | Fair | CLR | 23.6 | 18.9 | 75% | 76.33 | 0.0 | |||||||
| 30 | 23:55 | Calm | 16.09 | Fair | CLR | 22.7 | 18.6 | 78% | 76.33 | 0.0 | |||||||
| 30 | 23:35 | S 6 | 16.09 | Fair | CLR | 22.8 | 18.7 | 78% | 76.33 | 0.0 | |||||||
| 30 | 23:15 | Calm | 16.09 | Fair | CLR | 23.5 | 18.7 | 75% | 76.33 | 0.0 | |||||||
| 30 | 22:55 | S 6 | 16.09 | Fair | CLR | 23.3 | 19 | 77% | 76.33 | 0.0 | |||||||
| 30 | 22:35 | S 7 | 16.09 | Fair | CLR | 23.4 | 18.8 | 75% | 76.33 | 0.0 | |||||||
| 30 | 22:15 | S 6 | 16.09 | Fair | CLR | 23.7 | 18.4 | 72% | 76.33 | 0.0 | |||||||
| 30 | 21:55 | Calm | 16.09 | Fair | CLR | 23.8 | 18.5 | 72% | 76.3 | 0.0 | |||||||
| 30 | 21:35 | Calm | 16.09 | Fair | CLR | 24.6 | 18 | 67% | 26 | 76.3 | 0.0 | ||||||
| 30 | 21:15 | Calm | 16.09 | Fair | CLR | 25.3 | 18 | 64% | 26 | 76.3 | 0.0 | ||||||
| 30 | 20:55 | Calm | 16.09 | Fair | CLR | 25.9 | 17.8 | 61% | 27 | 76.28 | 0.0 | ||||||
| 30 | 20:35 | SW 6 | 16.09 | Fair | CLR | 25.6 | 17.5 | 61% | 27 | 76.28 | 0.0 | ||||||
| 30 | 20:15 | Calm | 16.09 | Fair | CLR | 27 | 17.3 | 55% | 28 | 76.25 | 0.0 | ||||||
| 30 | 19:55 | Calm | 16.09 | Fair | CLR | 26.2 | 17.3 | 58% | 27 | 76.25 | 0.0 | ||||||
| 30 | 19:35 | Calm | 16.09 | Fair | CLR | 27.5 | 17.4 | 54% | 28 | 76.25 | 0.0 | ||||||
| 30 | 19:15 | Calm | 16.09 | Fair | CLR | 27.4 | 17.6 | 55% | 28 | 76.25 | 0.0 | ||||||
| 30 | 18:45 | S 13 | 16.09 | Partly Cloudy | SCT150 | 31 | 18 | 46% | 32 | 76.25 | 0.0 | ||||||
| 30 | 17:45 | S 19 | 16.09 | Partly Cloudy | SCT150 | 33 | 16 | 36% | 33 | 76.25 | 0.0 | ||||||
| 30 | 16:45 | S 19 | 16.09 | Partly Cloudy | SCT150 | 33 | 17 | 38% | 33 | 76.25 | 0.0 | ||||||
| 30 | 15:45 | S 19 | 16.09 | Partly Cloudy | SCT150 | 33 | 18 | 41% | 34 | 76.3 | 0.0 | ||||||
| 30 | 14:45 | S 24 | 16.09 | Partly Cloudy | SCT150 | 33 | 17 | 38% | 33 | 76.33 | 0.0 | ||||||
| 30 | 13:45 | S 19 | 16.09 | Fair | CLR | 33 | 16 | 36% | 33 | 76.4 | 0.0 | ||||||
| 30 | 12:45 | SW 15 | 16.09 | Fair | CLR | 32 | 17 | 41% | 32 | 76.4 | 0.0 | ||||||
| 30 | 11:45 | SW 15 | 16.09 | Fair | CLR | 32 | 18 | 43% | 33 | 76.43 | 0.0 | ||||||
| 30 | 10:45 | S 11 | 16.09 | A Few Clouds | FEW120 | 29 | 20 | 58% | 31 | 76.43 | 0.0 | ||||||
| Date | Time (cdt) | Wind (kph) | Vis. (km) | Weather | Sky Cond. | Air | Dwpt | Max. | Min. | Relative Humidity | Wind Chill (°C) | Heat Index (°C) | altimeter (cm) | sea level (mb) | 1 hr | 3 hr | 6 hr |
| 6 hour | |||||||||||||||||
| Temperature (ºC) | Pressure | Precipitation (cm) | |||||||||||||||